Date String (YYYY-MM-DD hh:mm:ss) UTC,Instrument flags,Ambient pressure (hPa),Sample flow (lpm),Bypass flow (lpm),Sample temperature (°C),Ambient temperature (°C),ASC tube jacket temperature (°C),LED temperature (°C),Box temperature (°C),Sample RH (%),Span deviation,Mass concentration (μg/m³),Mass concentration (μg/m³),Mass concentration (μg/m³)
DateTimeUTC,F1_M11,P_M11,Q1_M11,Q2_M11,T1_M11,T2_M11,T3_M11,T4_M11,T5_M11,U1_M11,ZSPAN_M11,X0_M11,X2_M11,X1_M11
2022-11-29 13:00:00,,0814.9,4.98,0.00,22.6,21.9,00.0,31.4,24.5,10.1,0000.0,0003.28,0000.80,0000.60
2022-11-29 13:01:00,,0814.9,5.01,0.00,22.6,21.6,00.0,31.4,24.4,10.1,0000.0,0002.47,0000.77,0000.58
2022-11-29 13:02:00,,0815.2,5.01,0.00,22.6,21.5,00.0,31.5,24.4,10.1,0000.0,0002.28,0000.79,0000.58
2022-11-29 13:03:00,,0815.3,5.00,0.00,22.6,21.4,00.0,31.5,24.4,10.1,0000.0,0001.31,0000.81,0000.58
2022-11-29 13:04:00,,0815.4,5.00,0.00,22.6,21.3,00.0,31.5,24.4,10.1,0000.0,0001.33,0000.80,0000.57
2022-11-29 13:05:00,,0815.4,5.00,0.00,22.5,21.2,00.0,31.5,24.3,10.1,0000.0,0001.31,0000.80,0000.57
2022-11-29 13:06:00,,0815.5,4.99,0.00,22.5,21.2,00.0,31.5,24.3,10.1,0000.0,0001.34,0000.81,0000.56
2022-11-29 13:07:00,,0815.4,5.00,0.00,22.5,21.2,00.0,31.5,24.3,10.1,0000.0,0001.37,0000.82,0000.56
2022-11-29 13:08:00,,0815.4,5.01,0.00,22.5,21.1,00.0,31.4,24.3,10.1,0000.0,0001.49,0000.83,0000.55
2022-11-29 13:09:00,,0815.4,5.00,0.00,22.5,21.1,00.0,31.4,24.3,10.1,0000.0,0001.55,0000.83,0000.54
2022-11-29 13:10:00,,0815.4,5.00,0.00,22.5,21.0,00.0,31.4,24.2,10.1,0000.0,0001.61,0000.84,0000.54
2022-11-29 13:11:00,,0815.4,4.99,0.00,22.5,21.0,00.0,31.4,24.2,10.1,0000.0,0001.54,0000.82,0000.53
2022-11-29 13:12:00,,0815.3,5.00,0.00,22.4,21.0,00.0,31.4,24.2,10.2,0000.0,0001.49,0000.80,0000.52
2022-11-29 13:13:00,,0815.4,5.00,0.00,22.4,21.0,00.0,31.4,24.2,10.2,0000.0,0001.48,0000.78,0000.52
2022-11-29 13:14:00,,0815.4,5.02,0.00,22.4,21.2,00.0,31.4,24.2,10.2,0000.0,0001.40,0000.75,0000.51
2022-11-29 13:15:00,,0815.5,4.99,0.00,22.5,22.0,00.0,31.3,24.4,10.1,0000.0,0001.31,0000.72,0000.51
2022-11-29 13:16:00,,0816.0,4.99,0.00,22.6,22.5,00.0,31.3,24.6,10.1,0000.0,0001.26,0000.70,0000.51
2022-11-29 13:17:00,,0816.1,5.00,0.00,22.6,22.2,00.0,31.4,24.6,10.1,0000.0,0001.26,0000.70,0000.51
2022-11-29 13:18:00,,0815.9,5.01,0.00,22.6,22.0,00.0,31.4,24.5,10.1,0000.0,0001.26,0000.70,0000.51
2022-11-29 13:19:00,,0816.0,4.98,0.00,22.6,21.7,00.0,31.4,24.5,10.1,0000.0,0001.44,0000.68,0000.51
2022-11-29 13:20:00,,0816.1,5.02,0.00,22.6,21.5,00.0,31.5,24.4,10.1,0000.0,0001.54,0000.68,0000.51
2022-11-29 13:21:00,,0816.1,4.99,0.00,22.6,21.4,00.0,31.5,24.4,10.1,0000.0,0001.47,0000.66,0000.51
2022-11-29 13:22:00,,0815.9,4.99,0.00,22.6,21.3,00.0,31.5,24.4,10.1,0000.0,0001.52,0000.68,0000.51
2022-11-29 13:23:00,,0815.8,5.00,0.00,22.6,21.2,00.0,31.5,24.3,10.1,0000.0,0001.53,0000.69,0000.52
2022-11-29 13:24:00,,0815.6,5.02,0.00,22.5,21.2,00.0,31.5,24.3,10.1,0000.0,0001.51,0000.68,0000.53
2022-11-29 13:25:00,,0815.5,4.99,0.00,22.5,21.2,00.0,31.5,24.3,10.1,0000.0,0001.53,0000.70,0000.54
2022-11-29 13:26:00,,0815.6,4.99,0.00,22.5,21.1,00.0,31.5,24.3,10.1,0000.0,0001.60,0000.73,0000.54
2022-11-29 13:27:00,,0815.8,5.01,0.00,22.5,21.0,00.0,31.4,24.3,10.1,0000.0,0001.60,0000.73,0000.53
2022-11-29 13:28:00,,0816.0,4.99,0.00,22.5,21.0,00.0,31.4,24.2,10.1,0000.0,0001.62,0000.75,0000.54
2022-11-29 13:29:00,,0816.1,4.99,0.00,22.5,21.0,00.0,31.4,24.2,10.1,0000.0,0001.61,0000.75,0000.54
2022-11-29 13:30:00,,0816.1,5.01,0.00,22.5,21.3,00.0,31.4,24.3,10.1,0000.0,0001.40,0000.77,0000.55
2022-11-29 13:31:00,,0816.0,5.01,0.00,22.5,22.1,00.0,31.3,24.4,10.1,0000.0,0001.22,0000.77,0000.55
2022-11-29 13:32:00,,0816.0,4.98,0.00,22.6,22.6,00.0,31.4,24.6,10.1,0000.0,0001.22,0000.77,0000.55
2022-11-29 13:33:00,,0816.1,5.01,0.00,22.7,22.3,00.0,31.4,24.6,10.0,0000.0,0001.38,0000.80,0000.55
2022-11-29 13:34:00,,0816.0,5.00,0.00,22.6,22.0,00.0,31.5,24.5,10.0,0000.0,0001.59,0000.86,0000.55
2022-11-29 13:35:00,,0816.1,5.00,0.00,22.6,21.7,00.0,31.5,24.5,10.1,0000.0,0001.63,0000.87,0000.55
2022-11-29 13:36:00,,0815.9,4.99,0.00,22.6,21.6,00.0,31.5,24.4,10.1,0000.0,0001.91,0000.90,0000.55
2022-11-29 13:37:00,,0815.7,5.01,0.00,22.6,21.5,00.0,31.5,24.4,10.1,0000.0,0002.46,0000.89,0000.56
2022-11-29 13:38:00,,0815.7,5.01,0.00,22.6,21.3,00.0,31.5,24.4,10.1,0000.0,0002.48,0000.90,0000.56
2022-11-29 13:39:00,,0815.7,4.99,0.00,22.6,21.2,00.0,31.5,24.4,10.1,0000.0,0002.50,0000.90,0000.57
2022-11-29 13:40:00,,0815.7,4.99,0.00,22.5,21.2,00.0,31.5,24.3,10.1,0000.0,0002.56,0000.92,0000.58
2022-11-29 13:41:00,,0815.7,5.01,0.00,22.5,21.1,00.0,31.5,24.3,10.1,0000.0,0002.53,0000.92,0000.60
2022-11-29 13:42:00,,0815.7,5.00,0.00,22.5,21.0,00.0,31.5,24.3,10.1,0000.0,0002.51,0000.92,0000.61
2022-11-29 13:43:00,,0815.6,5.00,0.00,22.5,21.0,00.0,31.4,24.2,10.1,0000.0,0002.51,0000.92,0000.62
2022-11-29 13:44:00,,0816.1,5.01,0.00,22.5,21.0,00.0,31.4,24.2,10.1,0000.0,0002.48,0000.90,0000.63
2022-11-29 13:45:00,,0816.1,5.01,0.00,22.4,21.0,00.0,31.4,24.2,10.1,0000.0,0002.29,0000.85,0000.64
2022-11-29 13:46:00,,0816.0,5.00,0.00,22.4,21.0,00.0,31.4,24.2,10.1,0000.0,0002.34,0000.87,0000.64
2022-11-29 13:47:00,,0815.6,4.98,0.00,22.4,21.0,00.0,31.4,24.2,10.1,0000.0,0002.18,0000.85,0000.64
2022-11-29 13:48:00,,0815.6,5.02,0.00,22.5,21.5,00.0,31.3,24.3,10.1,0000.0,0001.47,0000.84,0000.64
2022-11-29 13:49:00,,0815.7,5.00,0.00,22.5,22.3,00.0,31.3,24.5,10.1,0000.0,0001.52,0000.86,0000.65
2022-11-29 13:50:00,,0815.8,5.00,0.00,22.6,22.4,00.0,31.4,24.6,10.0,0000.0,0001.56,0000.88,0000.66
2022-11-29 13:51:00,,0815.8,5.00,0.00,22.6,22.1,00.0,31.4,24.6,10.0,0000.0,0001.57,0000.87,0000.66
2022-11-29 13:52:00,,0815.8,5.00,0.00,22.6,21.8,00.0,31.4,24.5,10.0,0000.0,0001.59,0000.88,0000.66
2022-11-29 13:53:00,,0815.8,4.99,0.00,22.6,21.6,00.0,31.5,24.4,10.0,0000.0,0001.66,0000.91,0000.67
2022-11-29 13:54:00,,0815.8,4.99,0.00,22.6,21.5,00.0,31.5,24.4,10.0,0000.0,0001.79,0000.95,0000.67
2022-11-29 13:55:00,,0815.8,5.00,0.00,22.6,21.4,00.0,31.5,24.4,10.0,0000.0,0001.74,0000.97,0000.67
2022-11-29 13:56:00,,0815.7,5.01,0.00,22.6,21.3,00.0,31.5,24.4,10.1,0000.0,0001.78,0001.00,0000.68
2022-11-29 13:57:00,,0815.6,4.99,0.00,22.5,21.2,00.0,31.5,24.3,10.1,0000.0,0001.73,0000.98,0000.69
2022-11-29 13:58:00,,0815.7,5.00,0.00,22.5,21.2,00.0,31.4,24.3,10.1,0000.0,0001.75,0001.00,0000.70
2022-11-29 13:59:00,,0816.1,5.00,0.00,22.5,21.1,00.0,31.4,24.3,10.1,0000.0,0001.80,0001.01,0000.71
